Location: Partizánske
(48.6285°N, 18.3769°E)
Time: 00:38:26
(UTC+01:00)

ISS - Pass Details

Date: 06 December 2021
Orbit: 413 x 422 km, 51.6° (Epoch: 22 January)

Event Time Altitude Azimuth Distance (km) Brightness Sun altitude
Rises 17:53:44 0° 288° (WNW) 2,384 1.1 -19.3°
Reaches altitude 10° 17:56:05 10° 274° (W) 1,513 0.2 -19.7°
Maximum altitude 17:58:53 24° 219° (SW) 923 -1.5 -20.1°
Enters shadow 18:01:10 13° 168° (SSE) 1,343 -1.2 -20.5°
